Location: Bidwell Hollow
(37.7387°N, 90.1707°W)
Time: 02:23:00
(UTC+00:00)

Tiros 1 despin weight - Pass Details

Date: 20 May 2026
Orbit: 554 x 591 km, 48.2° (Epoch: 6 June)

Event Time Altitude Azimuth Distance (km) Brightness Sun altitude
Rises 15:34:26 0° 298° (WNW) 2,734 ? 54.4°
Reaches altitude 10° 15:36:46 10° 292° (WNW) 1,834 ? 54.8°
Maximum altitude 15:40:43 42° 221° (SW) 794 ? 55.6°
Drops below altitude 10° 15:44:39 10° 150° (SSE) 1,823 ? 56.3°
Sets 15:46:58 0° 143° (SE) 2,715 ? 56.7°
